Baltimore Martin, MD

7:03 AM EDT on August 17, 2017 (GMT -0400)
Martin State

Weather History for KMTN - April, 2013

Change the Weather History Date:

Saturday, April 27, 2013

  Actual Average Record
Temperature  
Mean Temperature 54 °F -  
Max Temperature 68 °F 65 °F 78 °F (2017)
Min Temperature 41 °F 47 °F 39 °F (2001)
Degree Days  
Heating Degree Days 10    
Growing Degree Days 4 (Base 50)    
Moisture  
Dew Point 38 °F    
Average Humidity 62    
Maximum Humidity 82    
Minimum Humidity 26    
Precipitation  
Precipitation 0.00 in - - ()
Sea Level Pressure  
Sea Level Pressure 30.39 in    
Wind  
Wind Speed 2 mph (SE)    
Max Wind Speed 9 mph    
Max Gust Speed -    
Visibility 10 miles    
Events      
Averages and records for this station are not official NWS values.
T = Trace of Precipitation, MM = Missing Value Source: NWS Daily Summary

Daily Weather History Graph

Daily Weather History Graph

Search for Another Location

Airport or City:

Trip Planner

Search our weather history database for the weather conditions in past years. The results will help you decide how hot, cold, wet, or windy it might be!

Date:

Astronomy

Apr. 27, 2013 Rise Set
Actual Time 6:11 AM EDT 7:55 PM EDT
Civil Twilight 5:43 AM EDT 8:24 PM EDT
Nautical Twilight 5:08 AM EDT 8:58 PM EDT
Astronomical Twilight 4:31 AM EDT 9:36 PM EDT
Moon 10:21 PM EDT (4/27) 7:28 AM EDT (4/27)
Length of Visible Light 14h 41m
Length of Day
13h 43m
Waning Gibbous, 95% of the Moon is Illuminated
Apr 27
Waning Gibbous
May 2
Last Quarter
May 9
New
May 18
First Quarter
May 25
Full

Hourly Weather History & Observations

Time (EDT) Temp. Windchill Dew Point Humidity Pressure Visibility Wind Dir Wind Speed Gust Speed Precip Events Conditions
12:15 AM 48.2 °F - 37.4 °F 66% 30.43 in 10.0 mi Calm Calm - N/A   Clear
12:33 AM 46.4 °F - 41.0 °F 81% 30.42 in 10.0 mi Calm Calm - N/A   Clear
12:54 AM 44.6 °F - 37.4 °F 76% 30.43 in 10.0 mi Calm Calm - N/A   Clear
1:15 AM 46.4 °F - 35.6 °F 66% 30.42 in 10.0 mi Calm Calm - N/A   Clear
1:36 AM 42.8 °F - 35.6 °F 76% 30.41 in 10.0 mi Calm Calm - N/A   Clear
1:54 AM 46.4 °F - 33.8 °F 62% 30.42 in 10.0 mi Calm Calm - N/A   Clear
2:15 AM 44.6 °F - 33.8 °F 66% 30.42 in 10.0 mi Calm Calm - N/A   Clear
2:36 AM 44.6 °F - 33.8 °F 66% 30.42 in 10.0 mi Calm Calm - N/A   Clear
2:54 AM 44.6 °F - 33.8 °F 66% 30.42 in 10.0 mi Calm Calm - N/A   Clear
3:15 AM 44.6 °F - 33.8 °F 66% 30.42 in 10.0 mi Calm Calm - N/A   Clear
3:36 AM 44.6 °F - 35.6 °F 71% 30.41 in 10.0 mi Calm Calm - N/A   Clear
3:54 AM 42.8 °F - 37.4 °F 81% 30.41 in 10.0 mi Calm Calm - N/A   Clear
4:15 AM 42.8 °F 41.1 °F 35.6 °F 76% 30.41 in 10.0 mi WNW 3.5 mph - N/A   Clear
4:36 AM 42.8 °F - 35.6 °F 76% 30.41 in 10.0 mi Calm Calm - N/A   Clear
4:54 AM 42.8 °F - 35.6 °F 76% 30.41 in 10.0 mi Calm Calm - N/A   Clear
5:15 AM 41.0 °F - 35.6 °F 81% 30.41 in 10.0 mi Calm Calm - N/A   Clear
5:36 AM 42.8 °F - 37.4 °F 81% 30.41 in 10.0 mi Calm Calm - N/A   Clear
5:55 AM 44.6 °F - 37.4 °F 76% 30.42 in 10.0 mi Calm Calm - N/A   Clear
6:45 AM 46.4 °F 45.2 °F 37.4 °F 71% 30.43 in 10.0 mi NNW 3.5 mph - N/A   Clear
7:45 AM 50.0 °F - 39.2 °F 66% 30.45 in 10.0 mi Calm Calm - N/A   Clear
8:45 AM 57.2 °F - 39.2 °F 51% 30.46 in 10.0 mi ENE 5.8 mph - N/A   Clear
9:45 AM 59.0 °F - 37.4 °F 45% 30.45 in 10.0 mi ENE 4.6 mph - N/A   Clear
10:45 AM 62.6 °F - 39.2 °F 42% 30.44 in 10.0 mi East 5.8 mph - N/A   Clear
11:50 AM 64.4 °F - 33.8 °F 32% 30.43 in 10.0 mi East 4.6 mph - N/A   Clear
12:50 PM 64.4 °F - 35.6 °F 34% 30.41 in 10.0 mi SE 6.9 mph - N/A   Clear
1:55 PM 66.2 °F - 30.2 °F 26% 30.38 in 10.0 mi SSE 4.6 mph - N/A   Clear
2:55 PM 66.2 °F - 35.6 °F 32% 30.37 in 10.0 mi SSE 9.2 mph - N/A   Clear
3:50 PM 68.0 °F - 35.6 °F 30% 30.36 in 10.0 mi ESE 9.2 mph - N/A   Clear
4:50 PM 68.0 °F - 37.4 °F 33% 30.34 in 10.0 mi SE 9.2 mph - N/A   Clear
5:55 PM 66.2 °F - 37.4 °F 35% 30.33 in 10.0 mi SE 6.9 mph - N/A   Partly Cloudy
6:55 PM 64.4 °F - 35.6 °F 34% 30.32 in 10.0 mi SE 6.9 mph - N/A   Partly Cloudy
8:50 PM 57.2 °F - 46.4 °F 67% 30.32 in 10.0 mi Calm Calm - N/A   Scattered Clouds
9:45 PM 55.4 °F - 48.2 °F 77% 30.32 in 10.0 mi Calm Calm - N/A   Scattered Clouds
10:18 PM 53.6 °F - 46.4 °F 77% 30.32 in 10.0 mi Calm Calm - N/A   Clear
10:57 PM 53.6 °F - 48.2 °F 82% 30.32 in 10.0 mi ESE 3.5 mph - N/A   Clear
11:18 PM 57.2 °F - 48.2 °F 72% 30.31 in 10.0 mi SSE 5.8 mph - N/A   Clear
11:36 PM 57.2 °F - 46.4 °F 67% 30.32 in 10.0 mi South 3.5 mph - N/A   Clear
11:57 PM 57.2 °F - 46.4 °F 67% 30.32 in 10.0 mi SSE 5.8 mph - N/A   Clear